EW1296 Weather Reports


time (UTC)temp
F
wind
direction
speed
knots
gust
knots
rain 1hr
in
rain 24hr
in
rain mn
in
humidity
%
barometer
mb
20260503001517 59 338 1.7 5.2 0.00 0.01 0.01 37 1010.4
20260503001017 59 315 2.6 7.0 0.00 0.01 0.01 36 1010.4
20260503000516 59 315 1.7 4.3 0.00 0.01 0.01 37 1010.3
20260503000016 60 293 1.7 6.1 0.00 0.01 0.01 37 1010.3
20260502235516 60 338 2.6 7.8 0.00 0.01 0.01 35 1010.3
20260502235016 60 0 2.6 5.2 0.00 0.01 0.01 35 1010.4
20260502234516 60 338 1.7 5.2 0.00 0.01 0.01 36 1010.4
20260502234016 60 0 1.7 4.3 0.00 0.01 0.01 35 1010.3
20260502233538 60 338 1.7 4.3 0.00 0.01 0.01 35 1010.3
20260502233016 61 315 3.5 8.7 0.00 0.01 0.01 35 1010.2
20260502232516 61 315 2.6 5.2 0.00 0.01 0.01 34 1010.2
20260502232017 61 315 2.6 7.0 0.00 0.01 0.01 35 1010.1
20260502231517 61 315 3.5 7.8 0.00 0.01 0.01 35 1010.1
20260502231016 62 338 1.7 7.0 0.00 0.01 0.01 35 1010.1
20260502230516 62 0 2.6 5.2 0.00 0.01 0.01 34 1010.1
20260502230016 62 0 1.7 6.1 0.00 0.01 0.01 34 1010.2
20260502225516 62 0 1.7 4.3 0.00 0.01 0.01 34 1010.1
20260502225036 62 338 1.7 4.3 0.00 0.01 0.01 34 1010.0
20260502224516 62 23 1.7 7.0 0.00 0.01 0.01 34 1010.0
20260502224016 62 0 2.6 4.3 0.00 0.01 0.01 34 1009.8
20260502223516 62 315 2.6 7.0 0.00 0.01 0.01 33 1009.8
20260502223016 62 315 2.6 4.3 0.00 0.01 0.01 33 1009.8
20260502222516 62 293 2.6 6.1 0.00 0.01 0.01 33 1009.8
20260502222017 62 315 1.7 4.3 0.00 0.01 0.01 33 1009.9
20260502221516 62 315 4.3 9.6 0.00 0.01 0.01 34 1009.9
20260502221016 62 0 1.7 7.8 0.00 0.01 0.01 33 1010.0
20260502220516 62 293 1.7 3.5 0.00 0.01 0.01 33 1009.9
20260502220017 62 315 0.9 3.5 0.00 0.01 0.01 34 1010.0
20260502215537 62 338 2.6 6.1 0.00 0.01 0.01 33 1009.9
20260502215016 62 0 2.6 7.0 0.00 0.01 0.01 33 1010.0
20260502214517 62 315 1.7 4.3 0.00 0.01 0.01 33 1010.0
20260502214017 62 0 1.7 5.2 0.00 0.01 0.01 33 1010.0
20260502213515 63 338 0.9 3.5 0.00 0.01 0.01 34 1009.9
20260502213016 63 45 2.6 7.0 0.00 0.01 0.01 33 1009.8
20260502212537 63 0 3.5 7.8 0.00 0.01 0.01 33 1009.9
20260502212016 63 0 2.6 7.0 0.00 0.01 0.01 33 1009.8
20260502211537 63 338 3.5 7.0 0.00 0.01 0.01 34 1009.7
20260502211016 62 0 2.6 7.8 0.00 0.01 0.01 34 1009.6
20260502210516 62 0 2.6 7.8 0.00 0.01 0.01 34 1009.6
20260502210016 63 315 2.6 7.0 0.00 0.01 0.01 34 1009.6
20260502205516 63 270 1.7 5.2 0.00 0.01 0.01 35 1009.7
20260502205016 63 0 2.6 6.1 0.00 0.01 0.01 34 1009.6
20260502204538 63 0 1.7 4.3 0.00 0.01 0.01 34 1009.6
20260502204015 63 338 3.5 9.6 0.00 0.01 0.01 34 1009.7
20260502203535 63 338 2.6 7.0 0.00 0.01 0.01 35 1009.7
20260502203016 63 0 1.7 7.8 0.00 0.01 0.01 36 1009.7
20260502202515 63 0 1.7 4.3 0.00 0.01 0.01 35 1009.7
20260502202016 63 0 2.6 7.0 0.00 0.01 0.01 35 1009.9
20260502201516 63 0 1.7 4.3 0.00 0.01 0.01 35 1009.9
20260502201017 63 0 2.6 7.0 0.00 0.01 0.01 36 1010.1
20260502200516 63 315 2.6 7.0 0.00 0.01 0.01 37 1010.0
20260502200017 63 248 1.7 6.1 0.00 0.01 0.01 37 1010.1
20260502195517 63 315 0.9 2.6 0.00 0.01 0.01 38 1010.2
20260502195016 62 315 1.7 6.1 0.00 0.01 0.01 39 1010.3
20260502194516 62 0 1.7 7.8 0.00 0.01 0.01 40 1010.5
20260502194016 63 248 2.6 4.3 0.00 0.01 0.01 40 1010.5
20260502193515 63 315 0.9 3.5 0.00 0.01 0.01 40 1010.5
20260502193017 63 270 2.6 7.0 0.00 0.01 0.01 39 1010.6
20260502192515 63 315 1.7 6.1 0.00 0.01 0.01 40 1010.7
20260502192036 63 315 2.6 4.3 0.00 0.01 0.01 41 1010.8
20260502191515 63 315 3.5 7.0 0.00 0.01 0.01 42 1010.9
20260502191015 62 293 2.6 7.8 0.00 0.01 0.01 42 1010.9
20260502190515 63 0 2.6 7.0 0.00 0.01 0.01 42 1011.0
20260502190016 62 315 2.6 7.8 0.00 0.01 0.01 43 1011.1
20260502185516 61 0 2.6 6.1 0.00 0.01 0.01 44 1011.1
20260502185016 61 0 1.7 7.0 0.00 0.01 0.01 44 1011.1
20260502184516 62 315 1.7 5.2 0.00 0.01 0.01 44 1011.1
20260502184036 62 0 2.6 7.8 0.00 0.01 0.01 45 1011.2
20260502183537 61 45 2.6 6.1 0.00 0.01 0.01 44 1011.2
20260502183016 62 0 2.6 7.0 0.00 0.01 0.01 45 1011.4
20260502182517 62 338 1.7 5.2 0.00 0.01 0.01 45 1011.3
20260502182016 61 338 2.6 5.2 0.00 0.01 0.01 45 1011.3
20260502181516 61 0 2.6 7.0 0.00 0.01 0.01 45 1011.4
20260502181037 61 45 2.6 8.7 0.00 0.01 0.01 46 1011.4
20260502180515 61 0 2.6 5.2 0.00 0.01 0.01 47 1011.4
20260502170516 60 315 2.6 7.0 0.00 0.01 0.01 52 1011.7
20260502164017 59 0 2.6 7.0 0.00 0.01 0.01 55 1012.1
20260502163517 59 293 2.6 5.2 0.00 0.01 0.01 58 1012.2
20260502163017 59 315 3.5 7.0 0.00 0.01 0.01 58 1012.3
20260502162517 59 248 4.3 9.6 0.00 0.01 0.01 60 1012.3
20260502162017 58 0 2.6 7.8 0.00 0.01 0.01 62 1012.3
20260502161518 58 0 2.6 7.8 0.00 0.01 0.01 62 1012.2
20260502161019 58 338 2.6 5.2 0.00 0.01 0.01 64 1012.1
20260502160517 58 315 1.7 6.1 0.00 0.01 0.01 65 1012.1
20260502152018 56 293 4.3 7.8 0.00 0.01 0.01 66 1012.4
20260502151517 57 315 3.5 7.0 0.00 0.01 0.01 66 1012.2
20260502151018 57 315 3.5 7.0 0.00 0.01 0.01 67 1012.2
20260502150519 57 315 4.3 8.7 0.00 0.01 0.01 67 1012.3
20260502130517 55 270 2.6 5.2 0.00 0.01 0.01 74 1012.6
20260502123517 54 270 2.6 4.3 0.00 0.01 0.01 79 1012.4
20260502123017 54 270 1.7 3.5 0.00 0.01 0.01 78 1012.5
20260502122517 54 270 2.6 5.2 0.00 0.01 0.01 79 1012.4
20260502122018 54 270 2.6 6.1 0.00 0.01 0.01 79 1012.2
20260502121517 54 225 0.9 2.6 0.00 0.01 0.01 80 1012.2
20260502121017 54 225 0.9 3.5 0.00 0.01 0.01 80 1012.2
20260502120517 54 225 0.9 2.6 0.00 0.01 0.01 80 1012.2
20260502115517 54 0.0 0.9 0.00 0.01 0.01 81 1012.2
20260502115018 53 315 0.9 2.6 0.00 0.01 0.01 82 1012.2
20260502114517 53 0.0 1.7 0.00 0.01 0.01 82 1012.2
20260502114038 53 0.0 1.7 0.00 0.01 0.01 82 1012.2
20260502113517 53 0.0 2.6 0.00 0.01 0.01 83 1012.2
20260502113017 53 0.0 0.9 0.00 0.01 0.01 84 1012.2
20260502112539 53 0.0 0.9 0.00 0.01 0.01 84 1012.2
20260502112018 53 0.0 1.7 0.00 0.01 0.01 85 1012.2
20260502111522 53 315 0.9 3.5 0.00 0.01 0.01 85 1012.2
20260502111038 53 315 0.9 2.6 0.00 0.01 0.01 85 1012.1
20260502110517 52 0.0 1.7 0.00 0.01 0.01 85 1012.0
20260502110017 52 0.0 1.7 0.00 0.01 0.01 86 1012.0
20260502105517 52 0.0 1.7 0.00 0.01 0.01 86 1011.9
20260502105037 52 0.0 0.9 0.00 0.01 0.01 86 1011.8
20260502104518 52 248 0.9 1.7 0.00 0.01 0.01 86 1011.8
20260502104017 52 0.0 0.0 0.01 0.01 0.01 85 1011.7
20260502103517 52 0.0 0.0 0.01 0.01 0.01 85 1011.6
20260502103017 52 0.0 0.0 0.01 0.01 0.01 86 1011.5
20260502102517 52 0.0 0.0 0.01 0.01 0.01 85 1011.5
20260502102017 52 0.0 0.0 0.01 0.01 0.01 85 1011.5
20260502101517 52 0.0 0.0 0.01 0.01 0.01 85 1011.4
20260502101017 52 0.0 0.0 0.01 0.01 0.01 85 1011.5
20260502100518 52 0.0 0.0 0.01 0.01 0.01 85 1011.5
20260502091016 52 248 1.7 5.2 0.00 0.00 0.00 83 1011.8
20260502090518 52 225 3.5 7.8 0.00 0.00 0.00 83 1011.9
20260502071516 53 225 0.9 4.3 0.00 0.00 0.00 75 1011.9
20260502071017 53 225 1.7 4.3 0.00 0.00 0.00 75 1011.8
20260502070518 53 225 1.7 4.3 0.00 0.00 0.00 74 1011.9
20260502070017 53 203 0.9 2.6 0.00 0.00 0.00 74 1011.8
20260502065516 53 203 0.9 3.5 0.00 0.00 0.00 73 1011.7
20260502065036 53 203 0.9 1.7 0.00 0.00 0.00 73 1011.6
20260502064517 53 225 0.9 3.5 0.00 0.00 0.00 73 1011.9
20260502064016 53 225 1.7 6.1 0.00 0.00 0.00 72 1011.9
20260502063516 54 225 1.7 5.2 0.00 0.00 0.00 72 1011.9
20260502063017 54 203 3.5 6.1 0.00 0.00 0.00 72 1012.0
20260502062517 54 225 2.6 6.1 0.00 0.00 0.00 72 1012.1
20260502062017 54 225 1.7 4.3 0.00 0.00 0.00 71 1012.2
20260502061516 54 225 1.7 6.1 0.00 0.00 0.00 71 1012.2
20260502061016 54 225 3.5 7.8 0.00 0.00 0.00 70 1012.2
20260502060536 54 225 2.6 5.2 0.00 0.00 0.00 70 1012.3
20260502060017 54 203 2.6 5.2 0.00 0.00 0.00 69 1012.2
20260502055517 54 225 1.7 3.5 0.00 0.00 0.00 69 1012.2
20260502055016 54 225 1.7 5.2 0.00 0.00 0.00 68 1012.1
20260502054538 54 270 1.7 5.2 0.00 0.00 0.00 68 1012.0
20260502054016 54 225 1.7 3.5 0.00 0.00 0.00 69 1012.1
20260502053516 54 248 2.6 4.3 0.00 0.00 0.00 69 1012.0
20260502053038 54 270 1.7 5.2 0.00 0.00 0.00 69 1012.0
20260502052518 54 225 1.7 4.3 0.00 0.00 0.00 70 1012.1
20260502052016 54 248 1.7 4.3 0.00 0.00 0.00 70 1012.1
20260502051516 54 225 2.6 5.2 0.00 0.00 0.00 70 1012.1
20260502051016 54 203 1.7 5.2 0.00 0.00 0.00 69 1012.0
20260502050517 54 225 2.6 7.0 0.00 0.00 0.00 69 1012.1
20260502050016 54 225 2.6 7.8 0.00 0.00 0.00 69 1012.0
20260502045516 54 225 2.6 5.2 0.00 0.00 0.00 69 1012.0
20260502045016 54 203 2.6 6.1 0.00 0.00 0.00 69 1011.9
20260502044537 54 225 3.5 7.0 0.00 0.00 0.00 69 1011.8
20260502044017 54 225 2.6 5.2 0.00 0.00 0.00 69 1011.7
20260502043516 55 225 3.5 7.0 0.00 0.00 0.00 69 1011.8
20260502043016 54 225 2.6 6.1 0.00 0.00 0.00 69 1011.8
20260502042516 55 225 1.7 3.5 0.00 0.00 0.00 69 1011.9
20260502042016 54 225 3.5 7.8 0.00 0.00 0.00 69 1011.9
20260502041516 54 248 2.6 7.0 0.00 0.00 0.00 69 1012.1
20260502041016 54 225 3.5 7.8 0.00 0.00 0.00 70 1012.1
20260502040517 54 225 3.5 8.7 0.00 0.00 0.00 70 1012.1
20260502040017 54 225 1.7 5.2 0.00 0.00 0.00 71 1012.1
20260502035538 55 225 3.5 7.8 0.00 0.00 0.00 72 1012.1
20260502035017 55 203 2.6 8.7 0.00 0.00 0.00 73 1012.2
20260502034517 55 203 2.6 7.8 0.00 0.00 0.00 72 1012.2
20260502034017 55 225 3.5 7.0 0.00 0.00 0.00 72 1012.1
20260502033517 55 225 1.7 4.3 0.00 0.00 0.00 72 1011.9
20260502033037 55 225 1.7 6.1 0.00 0.00 0.00 72 1011.9
20260502032516 55 225 2.6 10.4 0.00 0.00 0.00 73 1012.0
20260502032017 55 225 3.5 9.6 0.00 0.00 0.00 74 1012.0
20260502031516 55 203 2.6 7.8 0.00 0.00 0.00 74 1011.9
20260502031016 55 225 3.5 7.8 0.00 0.00 0.00 75 1011.9
20260502030517 55 225 2.6 7.8 0.00 0.00 0.00 76 1012.0
20260502030018 55 225 2.6 7.0 0.00 0.00 0.00 77 1012.2
20260502025517 55 225 3.5 7.0 0.00 0.00 0.00 77 1012.3
20260502025018 54 225 3.5 8.7 0.00 0.00 0.00 78 1012.3
20260502024516 54 203 2.6 7.8 0.00 0.00 0.00 78 1012.3
20260502024016 54 225 3.5 7.8 0.00 0.00 0.00 79 1012.3
20260502023517 54 225 2.6 7.8 0.00 0.00 0.00 80 1012.3
20260502023017 54 225 2.6 6.1 0.00 0.00 0.00 80 1012.2
20260502022516 54 225 1.7 7.0 0.00 0.00 0.00 80 1012.3
20260502022058 54 225 0.9 4.3 0.00 0.00 0.00 80 1012.3
20260502021517 54 203 0.9 4.3 0.00 0.00 0.00 80 1012.3
20260502021057 54 225 1.7 5.2 0.00 0.00 0.00 79 1012.1
20260502020517 54 225 0.9 3.5 0.00 0.00 0.00 79 1012.1
20260502020036 54 0.0 1.7 0.00 0.00 0.00 79 1012.1
20260502015517 54 225 1.7 7.0 0.00 0.00 0.00 79 1012.1
20260502015018 54 225 0.9 4.3 0.00 0.00 0.00 78 1012.1
20260502014516 54 203 0.9 4.3 0.00 0.00 0.00 78 1012.0
20260502014036 54 225 1.7 6.1 0.00 0.00 0.00 78 1011.9
20260502013516 54 225 1.7 4.3 0.00 0.00 0.00 78 1012.0
20260502013016 54 225 1.7 5.2 0.00 0.00 0.00 77 1011.9
20260502012516 54 225 1.7 4.3 0.00 0.00 0.00 77 1012.0
20260502012016 54 225 0.9 4.3 0.00 0.00 0.00 77 1011.9
20260502011558 54 180 0.9 4.3 0.00 0.00 0.00 76 1011.7
20260502011016 54 158 0.9 3.5 0.00 0.00 0.00 76 1011.8
20260502010516 55 203 0.9 2.6 0.00 0.00 0.00 75 1011.7
20260502010018 55 0.0 1.7 0.00 0.00 0.00 75 1011.7
20260502005536 55 158 0.9 4.3 0.00 0.00 0.00 75 1011.6
20260502005016 55 0.0 1.7 0.00 0.00 0.00 75 1011.6
20260502004516 55 158 0.9 1.7 0.00 0.00 0.00 75 1011.6
20260502004016 55 203 0.9 3.5 0.00 0.00 0.00 75 1011.5
20260502003518 55 180 0.9 1.7 0.00 0.00 0.00 75 1011.6
20260502003016 55 203 0.9 5.2 0.00 0.00 0.00 74 1011.6
20260502002518 55 180 0.9 3.5 0.00 0.00 0.00 74 1011.5
20260502002016 55 158 0.9 2.6 0.00 0.00 0.00 74 1011.5